W1LH-12 Weather Reports


Display with metric or nautical units.
time (UTC)temp
F
wind
direction
speed
MPH
gust
MPH
rain 1hr
in
rain 24hr
in
rain mn
in
humidity
%
barometer
mb
20260507120621 48 0 0.0 0.0 0.00 0.01 0.00 1006.1
20260507120121 48 0 0.0 0.0 0.00 0.01 0.00 1006.1
20260507113620 48 0 0.0 2.0 0.00 0.01 0.00 1006.1
20260507092621 48 58 0.0 3.0 0.00 0.01 0.00 1004.4
20260507091620 48 343 0.0 3.0 0.00 0.01 0.00 1004.1
20260507091120 48 13 1.0 5.0 0.00 0.01 0.00 1004.1
20260507090619 48 333 0.0 5.0 0.00 0.01 0.00 1004.4
20260507090122 48 31 0.0 0.0 0.00 0.01 0.00 1004.4
20260507085620 48 31 0.0 0.0 0.00 0.01 0.00 1004.4
20260507084619 48 31 0.0 3.0 0.00 0.01 0.00 1004.4
20260507084124 48 31 0.0 3.0 0.00 0.01 0.00 1004.4
20260507083621 48 63 0.0 0.0 0.00 0.01 0.00 1004.4
20260507080621 48 63 0.0 0.0 0.00 0.01 0.00 1004.1
20260507071121 48 63 0.0 0.0 0.00 0.01 0.00 1003.4
20260507070620 48 63 0.0 0.0 0.00 0.01 0.00 1003.8
20260507070120 48 63 0.0 0.0 0.00 0.01 0.00 1004.1
20260507065619 48 63 0.0 3.0 0.00 0.01 0.00 1003.8
20260507031619 50 203 8.0 20.0 0.00 0.00 0.01 1006.1
20260507015619 50 214 7.0 17.0 0.01 0.00 0.01 1008.5
20260507015121 50 200 5.0 13.0 0.01 0.00 0.01 1008.2
20260507014620 50 240 4.0 13.0 0.01 0.00 0.01 1008.2
20260507013619 50 69 6.0 16.0 0.00 0.00 0.00 1008.5
20260507012621 51 219 2.0 14.0 0.00 0.00 0.00 1008.8